Find STARLINK-37504

NORAD ID: 68913 Constellation: starlink operational
LEOCIRCULARRETROGRADE

Live-Position

3D-Globus wird geladen...

Über STARLINK-37504

Beschreibung wird geladen...

Nächste Überflüge

Passes for default location (London). Set your location on the main map for personalized predictions.

Höhenverlauf

Loading altitude history...

Zweizeiliger Elementsatz

1 68913U 26097U 26125.50001156 -.02062938 12178-2 -49100-2 0 9994
2 68913 97.2869 320.4954 0001495 86.0155 149.7958 15.96812921 2044
Epoch: 5. Mai 2026 • Age: 10 hours